Location: De Har
(53.3413°N, 6.6858°E)
Time: 08:33:00
(UTC+00:00)

Cosmos 1408 Rocket - Pass Details

Date: 22 April 2026
Orbit: 593 x 624 km, 82.6° (Epoch: 15 May)

Event Time Altitude Azimuth Distance (km) Brightness Sun altitude
Rises 03:07:46 0° 351° (N) 2,864 7.4 -10.0°
Reaches altitude 10° 03:10:01 10° 355° (N) 1,952 6.6 -9.8°
Maximum altitude 03:14:17 58° 75° (ENE) 700 4.2 -9.2°
Drops below altitude 10° 03:18:29 10° 156° (SSE) 1,926 6.0 -8.7°
Sets 03:20:42 0° 160° (SSE) 2,822 6.8 -8.4°
